Weather observations for the past three days for
Port Hope
Metric (Imperial)
Date Time (edt) Wind (kph) Vis. (km) Weather Sky Cond. Temperature (ºC) Relative Humidity Wind Chill (°C) Heat Index (°C) Pressure Precipitation (cm)
Air Dwpt 6 hour altimeter (cm) sea level (mb) 1 hr 3 hr 6 hr
Max. Min.
08 20:55 SE 13 0.00 NULL NULL 10.6 -0.6 46% 75.46 1006.1
08 19:55 SE 15 G 30 0.00 NULL NULL 12.8 -1.1 16.7 11.1 38% 75.44 1006.0
08 18:55 SW 13 G 28 0.00 NULL NULL 15.6 -5 24% 75.44 1006.1
08 17:55 SW 19 G 41 0.00 NULL NULL 16.1 -5 23% 75.46 1006.3
08 16:55 SW 15 G 30 0.00 NULL NULL 16.1 -4.4 24% 75.49 1006.8
08 15:55 SW 15 G 35 0.00 NULL NULL 15 -5 25% 75.57 1007.6
08 14:55 Vrbl 11 0.00 NULL NULL 12.8 0 42% 75.62 1008.3
08 13:55 E 13 0.00 NULL NULL 11.7 1.7 12.8 6.1 51% 75.67 1009.3
08 12:55 E 19 0.00 NULL NULL 10.6 4.4 66% 75.74 1010.2
08 11:55 Calm 0.00 NULL NULL 11.1 2.8 57% 75.77 1010.6
08 10:55 SW 11 0.00 NULL NULL 11.1 -1.7 41% 75.79 1010.9
08 09:55 Vrbl 11 0.00 NULL NULL 10.6 -1.7 43% 75.79 1010.9
08 08:55 SW 9 0.00 NULL NULL 8.9 -0.6 52% 8 75.79 1011.1
08 07:55 SW 7 0.00 NULL NULL 6.1 0 6.1 0.6 65% 5 75.77 1010.7
08 06:55 SW 11 0.00 NULL NULL 2.8 -0.6 79% 0 75.77 1010.8
08 05:55 SW 9 0.00 NULL NULL 1.1 -0.6 89% -1 75.77 1010.9
08 04:55 SW 9 0.00 NULL NULL 1.7 0 89% -1 75.77 1011.0
08 03:55 SW 7 0.00 NULL NULL 2.8 0 82% 1 75.77 1010.9
08 02:55 SW 7 0.00 NULL NULL 3.9 0.6 79% 2 75.77 1010.9
08 01:55 Calm 0.00 NULL NULL 3.9 0.6 6.7 2.8 79% 75.79 1011.0
08 00:55 S 9 0.00 NULL NULL 4.4 0.6 77% 2 75.82 1011.4
07 23:55 SE 6 0.00 NULL NULL 4.4 -1.1 68% 75.82 1011.4
07 22:55 S 7 0.00 NULL NULL 3.9 -2.2 65% 2 75.84 1011.6
07 21:55 SE 6 0.00 NULL NULL 5 -2.2 60% 75.84 1011.6
07 20:55 S 7 0.00 NULL NULL 5.6 -2.2 58% 4 75.82 1011.4
07 19:55 S 9 0.00 NULL NULL 6.7 -1.7 7.2 5.6 55% 5 75.79 1011.0
07 18:55 SE 15 0.00 NULL NULL 6.7 -2.8 51% 4 75.79 1011.2
07 17:55 SE 15 0.00 NULL NULL 6.7 -1.7 55% 4 75.82 1011.4
07 16:55 E 17 0.00 NULL NULL 6.1 -1.1 60% 3 75.82 1011.7
07 15:55 SE 17 0.00 NULL NULL 6.7 -0.6 60% 4 75.84 1011.9
07 14:55 NE 20 0.00 NULL NULL 6.1 0.6 68% 3 75.84 1011.8
07 13:55 N 20 0.00 NULL NULL 6.7 0 8.3 3.9 63% 3 75.84 1011.9
07 12:55 N 13 0.00 NULL NULL 6.7 0 63% 4 75.92 1012.8
07 11:55 N 11 0.00 NULL NULL 7.2 1.1 66% 5 75.95 1013.0
07 10:55 N 11 0.00 NULL NULL 6.1 1.7 74% 4 75.95 1013.1
07 09:55 N 13 0.00 NULL NULL 7.2 -1.7 54% 5 75.95 1013.0
07 08:55 Calm 0.00 NULL NULL 5.6 -1.1 62% 75.92 1012.9
07 07:55 Calm 0.00 NULL NULL 3.9 -0.6 4.4 0 73% 75.92 1012.9
07 06:55 Calm 0.00 NULL NULL 1.7 -0.6 85% 75.9 1012.5
07 05:55 Calm 0.00 NULL NULL 1.1 -1.7 82% 75.9 1012.7
07 04:55 Calm 0.00 NULL NULL 0.6 -1.7 85% 75.92 1012.9
07 03:55 Calm 0.00 NULL NULL 1.1 -1.7 82% 75.9 1012.8
07 02:55 SE 6 0.00 NULL NULL 1.1 -2.2 79% 75.92 1012.8
07 01:55 E 11 0.00 NULL NULL 4.4 -2.8 5 4.4 60% 2 75.95 1013.2
07 00:55 E 15 0.00 NULL NULL 5 -2.8 57% 2 75.97 1013.5
06 23:55 E 19 0.00 NULL NULL 5 -2.8 57% 2 75.97 1013.4
06 22:55 E 17 0.00 NULL NULL 5 -3.9 53% 2 76 1013.8
06 21:55 E 17 0.00 NULL NULL 5 -3.9 53% 2 76.02 1014.0
06 20:55 E 19 0.00 NULL NULL 5 -3.3 55% 2 75.97 1013.5
06 19:55 E 22 0.00 NULL NULL 5 -3.3 5.6 4.4 55% 1 75.92 1012.9
06 18:55 SE 20 0.00 NULL NULL 5 -3.3 55% 1 75.95 1013.0
06 17:55 E 20 0.00 NULL NULL 5 -2.8 57% 1 75.92 1012.9
06 16:55 E 19 0.00 NULL NULL 5 -2.8 57% 2 75.92 1012.7
06 15:55 E 17 0.00 NULL NULL 4.4 -2.8 60% 1 75.92 1012.9
06 14:55 E 19 0.00 NULL NULL 5 -3.3 55% 2 75.95 1013.2
06 13:55 NE 13 0.00 NULL NULL 5 -3.3 6.1 3.9 55% 2 75.97 1013.4
06 12:55 NE 11 0.00 NULL NULL 5 -2.2 60% 3 75.97 1013.6
06 11:55 Vrbl 7 0.00 NULL NULL 5 0 70% 4 76 1013.7
06 10:55 Vrbl 7 0.00 NULL NULL 4.4 -0.6 70% 3 75.95 1013.1
06 09:55 Calm 0.00 NULL NULL 4.4 -0.6 70% 75.9 1012.6
06 08:55 N 13 0.00 NULL NULL 3.9 -1.1 70% 1 75.87 1012.0
06 07:55 N 15 0.00 NULL NULL 3.9 -1.1 4.4 2.8 70% 1 75.84 1011.7
06 06:55 N 17 G 33 0.00 NULL NULL 3.3 -1.1 73% -0 75.74 1010.6
06 05:55 N 30 0.00 NULL NULL 3.3 -0.6 76% -2 75.69 1009.5
06 04:55 N 30 G 44 0.00 NULL NULL 3.9 -0.6 73% -1 75.69 1009.6
06 03:55 N 31 G 44 0.00 NULL NULL 3.9 0.6 79% -1 75.69 1009.6
06 02:55 N 30 G 44 0.00 NULL NULL 3.9 0.6 79% -1 75.67 1009.4
06 01:55 N 26 0.00 NULL NULL 4.4 1.1 6.1 4.4 79% 0 75.67 1009.1
06 00:55 N 19 0.00 NULL NULL 5.6 1.7 76% 2 75.64 1008.8
05 23:55 NE 20 0.00 NULL NULL 5.6 1.1 73% 2 75.64 1008.6
05 22:55 NE 26 0.00 NULL NULL 5.6 0.6 71% 2 75.59 1008.2
05 21:55 NE 26 0.00 NULL NULL 5.6 1.7 76% 2 75.57 1008.0
Date Time (edt) Wind (kph) Vis. (km) Weather Sky Cond. Air Dwpt Max. Min. Relative Humidity Wind Chill (°C) Heat Index (°C) altimeter (cm) sea level (mb) 1 hr 3 hr 6 hr
6 hour
Temperature (ºC) Pressure Precipitation (cm)